[[{"header":{"parameterUnit":"m.s-1","parameterCategory":1,"la1":30.2991,"la2":30.254,"lo1":-89.0895,"lo2":-89.0444,"dy":0.0017,"dx":0.0017,"nx":28,"ny":28,"refTime":"2023-03-19T21:00:00:Z","depth":0,"parameterNumber":2,"parameterNumberName":"U-component_of_WINDS"},"data":[0,0,0,0,0,0,0,0,0,0,0,0,0,0,0,0,0,0,0,0,0,0,0,0,0,0,0,0,0,0,0,0,0,0,0,0,0,0,0,0,0,0,0,0,0,0,0,0,0,0,0,0,0,0,0,0,0,0,2.0649,2.0649,0,2.067,2.067,2.0671,2.0665,2.0664,2.0664,2.0663,2.0685,2.0685,2.0686,0,0,0,0,0,0,0,0,0,0,0,0,0,2.0603,2.0604,2.0649,2.0649,2.0649,2.067,2.067,2.0671,2.0665,2.0664,2.0664,2.0663,2.0684,2.0685,2.0687,0,0,0,0,0,0,0,0,0,0,0,0,0,2.0623,2.0604,2.0649,2.0649,2.0649,2.067,2.067,2.0671,2.0665,2.0664,2.0663,2.0663,2.0684,2.0685,2.0687,2.0709,0,0,2.0691,2.0692,0,0,0,0,0,0,0,0,2.0622,2.0625,2.0648,2.0649,2.0649,2.0664,2.0662,2.0683,2.0665,2.0659,2.0663,2.0663,2.0678,2.068,2.0685,2.071,2.0711,2.0691,2.0692,2.0693,2.0693,0,0,0,0,0,0,0,2.0621,2.0624,2.0657,2.0649,2.0649,2.0648,2.065,2.0666,2.0672,2.0659,2.0659,2.0662,2.0678,2.0684,2.0686,2.0711,2.0691,2.0693,2.0693,2.0694,2.0756,2.0756,0,0,0,0,0,0,2.0619,2.0623,2.0656,2.0658,2.0634,2.0649,2.0652,2.066,2.0672,2.0673,2.0662,2.0661,2.0682,2.0684,2.0687,2.0714,2.0693,2.0694,2.0695,2.0755,2.0756,2.0757,0,0,0,0,0,0,2.0618,2.0622,2.0656,2.064,2.0644,2.0651,2.066,2.0661,2.0666,2.0674,2.0675,2.0667,2.0682,2.0685,2.0704,2.0714,2.0695,2.0696,2.0754,2.0755,2.0756,2.0768,0,0,0,0,0,0,2.0617,2.0622,2.063,2.0641,2.0645,2.0672,2.0661,2.0661,2.0669,2.0668,2.0679,2.068,2.0681,2.0701,2.0705,2.0716,2.0697,2.0753,2.0754,2.0756,2.0766,2.0769,2.0772,0,0,0,0,0,2.0615,2.0632,2.0631,2.0635,2.0656,2.0672,2.0675,2.0677,2.067,2.0678,2.0683,2.0679,2.0713,2.0703,2.0707,2.0719,2.0752,2.0754,2.0756,2.0765,2.0769,2.0771,0,0,0,0,0,0,2.0622,2.0633,2.0632,2.0652,2.0662,2.0671,2.0682,2.068,2.0691,2.069,2.0691,2.0694,2.0713,2.0718,2.0707,2.0742,2.0732,2.0734,2.0738,2.0741,2.0743,2.0741,2.0698,0,0,0,0,0,2.0626,2.0639,2.0648,2.0665,2.067,2.0675,2.0683,2.0683,2.0693,2.0697,2.0703,2.0712,2.0725,2.0733,2.0745,2.0768,2.077,2.0778,2.078,2.0782,2.0784,2.0797,2.0801,2.0762,2.0762,2.0762,0,0,2.0634,2.0642,2.065,2.0667,2.0674,2.0688,2.0679,2.0693,2.0703,2.0699,2.0717,2.0722,2.0733,2.0754,2.0764,2.0759,2.0796,2.0784,2.0786,2.0787,2.0799,2.0803,2.0806,2.0763,2.0763,2.0763,0,0,2.0655,2.0663,2.0678,2.0686,2.0697,2.0701,2.0705,2.0716,2.0719,2.0738,2.0735,2.0748,2.0769,2.0777,2.0784,2.0811,2.0808,2.0815,2.0828,2.0841,2.0844,2.0846,2.0856,2.086,2.0817,2.0817,2.0817,0,2.0664,2.0684,2.0686,2.0701,2.0709,2.0707,2.0723,2.0731,2.0745,2.0751,2.0746,2.0774,2.0781,2.0804,2.0811,2.0816,2.0821,2.0813,2.0843,2.0846,2.0848,2.0858,2.0861,2.0818,2.0818,2.0818,2.0818,0,2.0694,2.0708,2.0719,2.0734,2.0744,2.0759,2.0764,2.0774,2.0774,2.0779,2.0798,2.0807,2.0821,2.0827,2.0827,2.0851,2.0847,2.0843,2.0832,2.0853,2.0862,2.0865,2.0819,2.0819,2.0818,2.0818,0,0,2.0718,2.0736,2.074,2.0747,2.0761,2.0772,2.0788,2.0802,2.081,2.0821,2.0835,2.0854,2.085,2.0858,2.086,2.0871,2.0892,2.0865,2.0865,2.0869,2.0919,2.0922,2.0926,2.0891,2.0891,2.0892,2.0918,0,2.0741,2.0769,2.0773,2.0797,2.0811,2.081,2.0824,2.0834,2.0839,2.0852,2.0857,2.0871,2.0865,2.087,2.0881,2.0887,2.0902,2.0885,2.0903,2.0904,2.09,2.0931,2.0934,2.0958,2.0922,2.0922,2.0923,0,2.0771,2.0783,2.081,2.0822,2.0828,2.0841,2.0855,2.0867,2.0879,2.0882,2.0892,2.0892,2.0909,2.0899,2.0923,2.0911,2.0919,2.0923,2.0925,2.0926,2.0914,2.0933,2.0966,2.097,2.0928,2.0928,2.0927,0,2.0786,2.081,2.0829,2.0835,2.085,2.0859,2.0866,2.0877,2.0886,2.0899,2.0905,2.0919,2.0927,2.0938,2.0943,2.0935,2.0967,2.0957,2.097,2.097,2.0975,2.0975,2.101,2.0981,2.0981,2.0981,2.0981,0,2.0811,2.0827,2.0836,2.0848,2.0866,2.0871,2.0889,2.0896,2.0906,2.0919,2.0919,2.0932,2.0937,2.0951,2.0955,2.0974,2.0977,2.098,2.0981,2.098,2.098,2.0985,2.0983,2.0982,2.0982,2.0982,2.0982,0,2.083,2.0837,2.0858,2.0872,2.0875,2.0889,2.09,2.0912,2.0918,2.0934,2.0939,2.0947,2.0964,2.097,2.0989,2.0991,2.1014,2.1013,2.101,2.101,2.1023,2.1021,2.1062,2.1068,2.1035,2.1035,2.1036,0,2.0845,2.0858,2.0873,2.0883,2.089,2.0904,2.0914,2.0919,2.0929,2.0945,2.0955,2.0971,2.0984,2.101,2.1018,2.1033,2.1033,2.1046,2.1035,2.1034,2.1033,2.1032,2.1033,2.1048,2.1048,2.1048,2.1049,0,2.0871,2.0875,2.0888,2.0904,2.0915,2.0928,2.0939,2.0947,2.0954,2.0966,2.0982,2.0993,2.1013,2.1029,2.1045,2.1053,2.1052,2.1052,2.1056,2.1055,2.1052,2.1054,2.1015,2.1051,2.1051,2.1051,2.1051,2.105,2.0889,2.0901,2.0914,2.0929,2.0939,2.0951,2.0963,2.0971,2.0985,2.1002,2.1005,2.1023,2.1035,2.1057,2.1065,2.108,2.1076,2.1081,2.1083,2.1084,2.1085,2.1051,2.1082,2.1082,2.1082,2.1082,2.1082,0,2.0915,2.0924,2.0938,2.0956,2.0968,2.0968,2.0981,2.0992,2.1008,2.102,2.1033,2.1053,2.1069,2.108,2.1096,2.1106,2.1106,2.111,2.1109,2.111,2.1087,2.1082,2.1109,2.1109,2.1109,2.1109,2.1109,2.1109,2.093,2.095,2.0955,2.098,2.0989,2.1007,2.1015,2.1026,2.1035,2.1058,2.1071,2.1078,2.109,2.1107,2.1122,2.1125,2.1131,2.1135,2.1137,2.1115,2.1112,2.1109,2.1105,2.1136,2.1136,2.116,2.116,2.116]},{"header":{"parameterUnit":"m.s-1","parameterCategory":1,"la1":30.2991,"la2":30.254,"lo1":-89.0895,"lo2":-89.0444,"dy":0.0017,"dx":0.0017,"nx":28,"ny":28,"refTime":"2023-03-19T21:00:00:Z","depth":0,"parameterNumber":3,"parameterNumberName":"V-component_of_WINDS"},"data":[0,0,0,0,0,0,0,0,0,0,0,0,0,0,0,0,0,0,0,0,0,0,0,0,0,0,0,0,0,0,0,0,0,0,0,0,0,0,0,0,0,0,0,0,0,0,0,0,0,0,0,0,0,0,0,0,0,0,-5.7823,-5.7824,0,-5.7898,-5.7899,-5.79,-5.7883,-5.7882,-5.788,-5.7879,-5.7951,-5.7954,-5.7958,0,0,0,0,0,0,0,0,0,0,0,0,0,-5.7662,-5.7665,-5.7823,-5.7824,-5.7825,-5.7898,-5.7899,-5.79,-5.7883,-5.7882,-5.788,-5.7878,-5.795,-5.7954,-5.7958,0,0,0,0,0,0,0,0,0,0,0,0,0,-5.7734,-5.7666,-5.7823,-5.7825,-5.7826,-5.7898,-5.7899,-5.79,-5.7884,-5.7882,-5.788,-5.7878,-5.7949,-5.7954,-5.7958,-5.803,0,0,-5.7973,-5.7975,0,0,0,0,0,0,0,0,-5.773,-5.774,-5.7824,-5.7825,-5.7827,-5.7879,-5.7869,-5.7944,-5.7884,-5.7862,-5.7879,-5.7877,-5.7929,-5.7935,-5.7954,-5.8034,-5.8037,-5.7974,-5.7977,-5.7979,-5.798,0,0,0,0,0,0,0,-5.7725,-5.7737,-5.7853,-5.7825,-5.7827,-5.7822,-5.783,-5.7883,-5.7906,-5.7864,-5.7863,-5.7872,-5.7929,-5.7949,-5.7955,-5.8038,-5.7974,-5.7978,-5.7981,-5.7983,-5.8184,-5.8186,0,0,0,0,0,0,-5.772,-5.7733,-5.785,-5.7855,-5.7772,-5.7827,-5.7836,-5.7864,-5.7905,-5.791,-5.7874,-5.7871,-5.7942,-5.795,-5.7958,-5.8047,-5.7979,-5.7983,-5.7986,-5.8182,-5.8185,-5.8187,0,0,0,0,0,0,-5.7716,-5.773,-5.7847,-5.7794,-5.7808,-5.7832,-5.7864,-5.7867,-5.7887,-5.7913,-5.7917,-5.789,-5.794,-5.7951,-5.8014,-5.8049,-5.7985,-5.799,-5.8179,-5.8183,-5.8186,-5.8224,0,0,0,0,0,0,-5.7712,-5.7729,-5.7757,-5.7794,-5.7811,-5.7903,-5.7866,-5.787,-5.7896,-5.7893,-5.793,-5.7933,-5.794,-5.8006,-5.8018,-5.8054,-5.7994,-5.8176,-5.818,-5.8185,-5.822,-5.8229,-5.8236,0,0,0,0,0,-5.7706,-5.7763,-5.7759,-5.7773,-5.7847,-5.7905,-5.7914,-5.7921,-5.7899,-5.7927,-5.7944,-5.7932,-5.8043,-5.8013,-5.8026,-5.8064,-5.8173,-5.8179,-5.8184,-5.8216,-5.8227,-5.8236,0,0,0,0,0,0,-5.7727,-5.7768,-5.7763,-5.7834,-5.7867,-5.7902,-5.7937,-5.7932,-5.7969,-5.7965,-5.7971,-5.7979,-5.8044,-5.806,-5.8026,-5.8138,-5.8105,-5.8113,-5.8125,-5.8135,-5.8143,-5.8138,-5.7998,0,0,0,0,0,-5.774,-5.7785,-5.7818,-5.7877,-5.7894,-5.7913,-5.7938,-5.7942,-5.7974,-5.7987,-5.8009,-5.804,-5.8082,-5.8109,-5.8149,-5.8222,-5.8231,-5.8255,-5.8264,-5.827,-5.8277,-5.832,-5.8331,-5.8205,-5.8205,-5.8205,0,0,-5.7767,-5.7795,-5.7822,-5.7882,-5.7907,-5.7953,-5.7924,-5.7973,-5.8007,-5.7994,-5.8056,-5.8073,-5.8108,-5.8177,-5.8208,-5.8192,-5.8314,-5.8277,-5.8282,-5.8286,-5.8326,-5.8338,-5.8349,-5.8209,-5.8208,-5.8208,0,0,-5.784,-5.7865,-5.7919,-5.7946,-5.7986,-5.7998,-5.8012,-5.8049,-5.806,-5.8123,-5.8115,-5.8155,-5.8226,-5.8253,-5.8275,-5.8362,-5.8353,-5.8375,-5.8418,-5.8459,-5.8469,-5.8478,-5.851,-5.8522,-5.8382,-5.8382,-5.8382,0,-5.7868,-5.7938,-5.7947,-5.7998,-5.8025,-5.8018,-5.8073,-5.8098,-5.8148,-5.8166,-5.8149,-5.8241,-5.8264,-5.834,-5.8362,-5.838,-5.8395,-5.8371,-5.8467,-5.8476,-5.8484,-5.8516,-5.8528,-5.8385,-5.8384,-5.8384,-5.8384,0,-5.7971,-5.802,-5.8059,-5.811,-5.8142,-5.8194,-5.8211,-5.8242,-5.8243,-5.8258,-5.8322,-5.835,-5.8397,-5.8415,-5.8415,-5.8493,-5.8482,-5.8466,-5.8433,-5.8499,-5.8528,-5.854,-5.8388,-5.8387,-5.8387,-5.8386,0,0,-5.8057,-5.8116,-5.813,-5.8155,-5.82,-5.8237,-5.829,-5.8338,-5.8365,-5.84,-5.8445,-5.8508,-5.8494,-5.852,-5.8523,-5.8559,-5.8629,-5.8539,-5.854,-5.8556,-5.8718,-5.8731,-5.8744,-5.8624,-5.8626,-5.8628,-5.8715,0,-5.8136,-5.8231,-5.8242,-5.8326,-5.8372,-5.8368,-5.8414,-5.8446,-5.8462,-5.8503,-5.852,-5.8565,-5.8543,-5.8559,-5.8594,-5.8613,-5.8662,-5.8607,-5.8665,-5.8667,-5.8658,-5.8759,-5.8772,-5.8854,-5.8727,-5.8729,-5.873,0,-5.8239,-5.8281,-5.8371,-5.8412,-5.8432,-5.8473,-5.852,-5.8559,-5.8596,-5.8605,-5.8636,-5.8636,-5.8691,-5.8656,-5.8732,-5.8695,-5.8719,-5.8732,-5.8736,-5.8742,-5.8703,-5.8769,-5.8879,-5.8892,-5.8748,-5.8746,-5.8745,0,-5.8295,-5.8373,-5.8438,-5.8459,-5.8508,-5.8538,-5.856,-5.8595,-5.8624,-5.8664,-5.8684,-5.8729,-5.8754,-5.8789,-5.8801,-5.8774,-5.8877,-5.8843,-5.8886,-5.8886,-5.8908,-5.8906,-5.9025,-5.8922,-5.8922,-5.8922,-5.8922,0,-5.8382,-5.8437,-5.8464,-5.8504,-5.8567,-5.8579,-5.864,-5.866,-5.8693,-5.8736,-5.8734,-5.8774,-5.8788,-5.8831,-5.884,-5.8903,-5.8913,-5.8922,-5.8925,-5.8923,-5.8922,-5.894,-5.8935,-5.8925,-5.8924,-5.8924,-5.8923,0,-5.8454,-5.8475,-5.8545,-5.8588,-5.86,-5.8644,-5.868,-5.8719,-5.8735,-5.8791,-5.8804,-5.883,-5.888,-5.8896,-5.8956,-5.8963,-5.9037,-5.9033,-5.9025,-5.9026,-5.9069,-5.9065,-5.9203,-5.9222,-5.9106,-5.9107,-5.9108,0,-5.8509,-5.8552,-5.86,-5.8631,-5.8654,-5.8702,-5.8733,-5.8748,-5.878,-5.8827,-5.886,-5.8911,-5.8953,-5.9034,-5.9057,-5.9104,-5.9102,-5.9148,-5.9109,-5.9108,-5.9105,-5.9103,-5.9108,-5.9155,-5.9156,-5.9157,-5.9158,0,-5.8603,-5.8612,-5.8658,-5.8708,-5.8746,-5.8785,-5.8823,-5.8848,-5.8868,-5.8904,-5.8958,-5.899,-5.9054,-5.9105,-5.9153,-5.9175,-5.917,-5.917,-5.9183,-5.9182,-5.9177,-5.9182,-5.9046,-5.9167,-5.9166,-5.9165,-5.9165,-5.9164,-5.8669,-5.8709,-5.875,-5.8802,-5.8833,-5.8869,-5.8909,-5.8932,-5.8977,-5.9032,-5.9037,-5.9095,-5.9133,-5.9198,-5.9222,-5.9268,-5.9255,-5.9273,-5.9277,-5.9282,-5.9286,-5.9169,-5.9276,-5.9276,-5.9276,-5.9276,-5.9275,0,-5.8766,-5.8793,-5.884,-5.8896,-5.8937,-5.8931,-5.8974,-5.9008,-5.906,-5.9097,-5.9139,-5.9202,-5.9252,-5.9281,-5.9331,-5.9362,-5.9361,-5.9375,-5.9373,-5.9378,-5.9294,-5.9279,-5.9375,-5.9375,-5.9375,-5.9374,-5.9374,-5.9374,-5.882,-5.8888,-5.8902,-5.8985,-5.9012,-5.9071,-5.9096,-5.913,-5.916,-5.923,-5.9273,-5.9292,-5.9326,-5.938,-5.9426,-5.9433,-5.9452,-5.9467,-5.9473,-5.9394,-5.9384,-5.9374,-5.936,-5.9471,-5.9471,-5.9553,-5.9554,-5.9554]}]]